Regional Weather Roundup
Issued by NWS Cleveland, OH

Home | Current Version | Previous Version | Graphics & Text | Print | Product List | Glossary On
Versions: 1 2 3 4 5 6 7 8 9 10 11 12 13 14 15 16 17 18 19 20 21 22 23 24 25 26 27 28 29 30 31 32 33 34 35 36 37 38 39 40 41 42 43 44 45 46 47 48 49 50
000
ASUS41 KCLE 231210
RWRCLE
OHIO REGIONAL WEATHER ROUNDUP
NATIONAL WEATHER SERVICE CLEVELAND, OH
800 AM EDT THU OCT 23 2014

NOTE: "FAIR" INDICATES FEW OR NO CLOUDS BELOW 12,000 FEET WITH NO
SIGNIFICANT WEATHER AND/OR OBSTRUCTIONS TO VISIBILITY.

OHZ001>008-015>018-024>027-034-035-043-044-231300-
   NORTHWEST OHIO

CITY           SKY/WX    TMP DP  RH WIND       PRES   REMARKS
DEFIANCE       FOG       31  29  92 CALM      30.26F VSB 1/2
FINDLAY        FOG       35  32  88 CALM      30.24S VSB 1/4
TOLEDO EXPRESS FOG       32  31  96 W3        30.24F VSB 1
TOLEDO EXEC    CLEAR     36  34  92 NW5       30.25S FOG
LIMA           FOG       34  33  96 W3        30.24S VSB 1/4
$$

OHZ009>014-019>023-028>033-038-089-231300-
   NORTHEAST OHIO

CITY           SKY/WX    TMP DP  RH WIND       PRES   REMARKS
CLE-HOPKINS    PTCLDY    45  42  89 W3        30.22F
CLE-LAKEFRONT  CLEAR     51  46  83 N13       30.19F
CUY CO. ARPT   PTCLDY    48  46  93 N6        30.20S
LORAIN-ELYRIA  CLEAR     42  42 100 NW5       30.22S
ASHTABULA      FOG       38  37  97 W5        30.18S VSB 3/4
AKRON-CANTON   MOCLDY    46  43  89 NW7       30.18S
WOOSTER        CLOUDY    47  43  86 NW8       30.20S
MANSFIELD      CLOUDY    43  43 100 N8        30.21S
YOUNGSTOWN     MOCLDY    42  41  96 NW7       30.17R FOG
$$

OHZ042-051>053-060>062-070>072-077>081-231300-
  SOUTHWEST OHIO

CITY           SKY/WX    TMP DP  RH WIND       PRES   REMARKS
CINC-COVINGTON CLEAR     39  37  92 CALM      30.25S FOG
CINC-LUNKEN    FOG       36  35  96 CALM      30.27S VSB 1/4
HAMILTON       CLEAR     33  32  96 CALM      30.27S FOG
DAYTON         FOG       38  36  92 CALM      30.25S VSB 1/2
WRIGHT-PAT AFB CLEAR     37  34  89 CALM      30.25R FOG
DAYTON GENERAL CLEAR     40  38  93 NW5       30.24S
WILMINGTON     CLEAR     40  37  89 NW5       30.24S FOG
$$

OHZ036-037-039>041-045>050-054>059-063>069-073>076-082>088-231300-
  CENTRAL AND SOUTHEAST OHIO

CITY           SKY/WX    TMP DP  RH WIND       PRES   REMARKS
COLUMBUS       CLOUDY    41  39  93 N7        30.22S FOG
OSU AIRPORT    FAIR      37  36  96 NW3       30.23R FOG
BOLTON FIELD   CLEAR     37  37 100 NW3       30.23S FOG
RICKENBACK AFB CLEAR     38  37  96 CALM      30.22S FOG
NEWARK         CLOUDY    42  40  92 CALM      30.21S FOG
MARION         FOG       33  32  96 CALM      30.23S VSB<1/4
LANCASTER      CLOUDY    42  40  92 NW5       30.22S FOG
ZANESVILLE     PTCLDY    40  38  93 NW6       30.21R FOG
NEW PHILLY     CLOUDY    46  43  89 NW6       30.20S
$$



USA.gov is the U.S. government's official web portal to all federal, state and local government web resources and services.